Погода в Порт-Толботе

Великобритания     51°35′10″N   3°47′16″W
темп.,
°C
ветер,
м/с
пор.,
м/с
влажн.,
%
обл.,
%
осадки,
мм/ч
давл.,
гПа
погр.,
м
5 декабря, вс
вс500:00+8сз12176998 0.1 10051657
03:00+7сз13187198 0.1 10071496
06:00+7ссз12177310 0.1 10081459
09:00+7ссз915671 0.0 10111193
12:00+8ссз1014655 0.0 10131144
15:00+8ссз912675 0.0 1014869
18:00+6ссз57725 0.0 1017348
21:00+6с337489 0.0 1018196
6 декабря, пн
пн600:00+6всв1173100 0.0 1017129
03:00+7ююз2471100 0.0 1015523
06:00+7ююз8981100 0.3 1012702
09:00+10зюз11148373 0.6 10081032
12:00+8зсз131868100 1.8 10091744
15:00+8зсз12166456 0.3 10091754
18:00+7зсз1115695 1.4 10111439
21:00+7зсз1013655 0.2 10131434
7 декабря, вт
вт700:00+7сз7106249 0.2 10121188
03:00+7юз1457100 0.0 10101002
06:00+7ююв81067100 0.0 1006959
09:00+8ююв131978100 0.0 9991425
12:00+8ююв192589100 2.9 9891542
15:00+8зюз111473100 8.9 9861444
18:00+8юз16207294 10.9 9851732
21:00+8юз182177100 1.9 9821911
8 декабря, ср
ср800:00+8юз182383100 4.1 9802139
03:00+7ююз182193100 3.1 9761498
06:00+6ююв91294100 5.3 973637
09:00+9зюз91072100 3.1 9741232
12:00+8зюз2378100 4.5 976549
15:00+8с678170 0.4 980649
18:00+7ссз788476 0.6 985418
21:00+7с81286100 0.1 990823
9 декабря, чт
чт900:00+6ссв91395100 0.6 995927
03:00+6св10147989 0.1 1000897
06:00+6св7117794 0.2 1004755
09:00+5св487314 0.0 1007423
12:00+6с227080 0.0 1007293
15:00+6сз227099 0.0 1007303
18:00+6всв117099 0.0 1007227
21:00+5вюв3377100 0.0 1006337